GFSSW_500_temp_120.txt.gz
Temp
-9 -9 -9 -9 -8 -9 -8 -8 -9 -8 -8 -9 -9 -8 -9 -9 -9 -9 -9 -9 -9 -10 -10 -10 -10 -10 -10 -10 -11 -11 -10 -10 -10 -10 -11 -11 -10 -10 -10 -10 -11 -10 -10 -10 -10
-9 -9 -9 -9 -9 -9 -9 -9 -9 -9 -9 -9 -9 -9 -9 -9 -9 -9 -10 -10 -10 -10 -11 -11 -11 -11 -11 -11 -11 -11 -11 -11 -11 -11 -11 -10 -10 -10 -11 -11 -11 -11 -11 -11 -11
-9 -9 -9 -9 -9 -9 -9 -9 -9 -9 -9 -9 -9 -9 -10 -10 -10 -9 -10 -10 -11 -11 -11 -11 -11 -11 -11 -11 -11 -11 -11 -11 -11 -11 -11 -11 -11 -10 -10 -11 -11 -11 -11 -11 -10
-10 -10 -10 -10 -10 -9 -9 -9 -10 -9 -9 -10 -10 -10 -10 -11 -10 -10 -11 -11 -11 -12 -12 -12 -12 -12 -12 -12 -12 -12 -12 -11 -11 -11 -11 -11 -11 -11 -11 -11 -11 -11 -10 -10 -10
-10 -10 -10 -10 -10 -10 -10 -10 -10 -10 -10 -10 -10 -10 -11 -11 -11 -11 -11 -11 -12 -12 -12 -12 -12 -12 -12 -12 -12 -12 -12 -12 -12 -12 -12 -11 -11 -11 -11 -11 -11 -11 -10 -10 -10
-11 -11 -11 -11 -11 -11 -11 -11 -11 -10 -10 -10 -11 -10 -11 -12 -11 -12 -12 -12 -13 -13 -12 -12 -12 -12 -12 -13 -13 -12 -12 -12 -12 -12 -11 -11 -11 -11 -11 -11 -11 -11 -11 -11 -11
-12 -12 -12 -11 -11 -11 -11 -11 -11 -11 -11 -11 -11 -11 -12 -12 -11 -12 -12 -13 -13 -13 -13 -13 -13 -13 -13 -13 -13 -13 -12 -12 -12 -12 -12 -11 -11 -11 -11 -12 -12 -12 -12 -12 -11
-13 -13 -12 -12 -12 -12 -12 -12 -11 -11 -11 -11 -11 -11 -12 -12 -12 -13 -13 -13 -14 -13 -13 -13 -13 -13 -13 -13 -13 -13 -12 -12 -12 -12 -12 -11 -11 -12 -12 -12 -12 -12 -12 -12 -12
-13 -13 -13 -13 -13 -12 -12 -13 -12 -12 -12 -12 -12 -12 -13 -13 -13 -13 -14 -14 -14 -14 -13 -13 -13 -13 -13 -13 -13 -13 -12 -12 -12 -12 -12 -12 -11 -12 -12 -12 -12 -12 -12 -12 -12
-14 -14 -14 -14 -13 -13 -13 -13 -13 -13 -12 -13 -13 -13 -13 -13 -14 -14 -14 -14 -14 -14 -14 -13 -13 -13 -14 -14 -13 -13 -12 -12 -12 -13 -12 -11 -12 -12 -12 -12 -12 -12 -12 -12 -11
-14 -14 -14 -14 -14 -14 -14 -14 -14 -13 -13 -12 -13 -13 -13 -13 -13 -14 -15 -15 -15 -15 -15 -14 -14 -14 -15 -13 -13 -13 -13 -13 -13 -13 -12 -12 -12 -12 -13 -13 -12 -12 -12 -12 -12
-14 -14 -14 -14 -14 -14 -14 -14 -14 -13 -13 -13 -13 -13 -13 -13 -13 -14 -15 -15 -15 -15 -15 -15 -14 -15 -14 -14 -14 -14 -14 -14 -13 -13 -13 -12 -12 -13 -13 -13 -13 -13 -13 -12 -12
-15 -15 -15 -14 -14 -15 -15 -14 -15 -14 -13 -14 -13 -13 -14 -13 -14 -16 -15 -15 -15 -15 -15 -14 -14 -14 -14 -14 -14 -14 -14 -14 -13 -14 -14 -13 -12 -12 -13 -13 -13 -13 -13 -13 -13
-15 -15 -15 -15 -15 -15 -16 -14 -15 -16 -14 -12 -14 -13 -14 -14 -14 -16 -15 -15 -15 -15 -15 -14 -15 -15 -14 -14 -15 -14 -15 -15 -14 -14 -14 -13 -12 -12 -13 -13 -14 -14 -14 -15 -15
-16 -15 -15 -15 -16 -17 -16 -16 -17 -17 -16 -14 -13 -13 -14 -15 -15 -15 -16 -16 -16 -16 -15 -15 -16 -15 -15 -15 -15 -15 -15 -15 -15 -15 -14 -14 -14 -13 -13 -14 -14 -14 -15 -15 -16
-16 -16 -16 -17 -18 -18 -18 -18 -18 -17 -15 -14 -14 -14 -15 -15 -16 -16 -16 -16 -16 -16 -16 -16 -16 -16 -16 -16 -16 -15 -15 -15 -15 -15 -15 -15 -16 -13 -14 -15 -16 -16 -16 -16 -16
-17 -17 -17 -17 -20 -19 -19 -20 -19 -17 -15 -15 -15 -15 -16 -16 -16 -16 -16 -16 -16 -16 -16 -16 -16 -16 -16 -16 -17 -17 -17 -16 -16 -16 -16 -16 -16 -15 -16 -16 -16 -17 -17 -17 -17
-20 -19 -18 -18 -20 -20 -21 -21 -20 -15 -16 -17 -16 -17 -17 -17 -17 -17 -17 -16 -16 -17 -17 -16 -16 -17 -17 -17 -17 -17 -17 -18 -18 -17 -17 -17 -16 -16 -17 -17 -18 -18 -18 -18 -18
-21 -19 -19 -20 -22 -21 -22 -22 -17 -16 -17 -18 -19 -18 -17 -17 -18 -17 -17 -17 -17 -17 -18 -17 -17 -17 -18 -18 -18 -17 -18 -19 -20 -19 -19 -18 -18 -18 -18 -19 -18 -18 -19 -19 -19
-22 -23 -21 -22 -22 -23 -23 -21 -17 -18 -19 -19 -20 -19 -18 -17 -18 -18 -18 -17 -18 -18 -19 -18 -18 -18 -19 -19 -19 -19 -20 -20 -21 -21 -21 -20 -19 -19 -19 -20 -19 -20 -20 -20 -20
-22 -22 -22 -22 -23 -24 -23 -19 -19 -18 -20 -20 -19 -20 -19 -19 -19 -19 -19 -19 -18 -19 -20 -19 -19 -18 -19 -19 -20 -21 -20 -21 -21 -21 -21 -20 -19 -20 -20 -20 -20 -20 -20 -21 -21
-23 -22 -22 -23 -24 -23 -22 -20 -20 -20 -20 -20 -20 -20 -19 -20 -20 -20 -20 -19 -20 -19 -19 -20 -20 -19 -20 -20 -21 -21 -21 -22 -21 -21 -21 -20 -19 -20 -20 -21 -21 -21 -21 -22 -22
-24 -23 -23 -24 -24 -23 -22 -21 -21 -21 -21 -21 -21 -21 -21 -21 -21 -21 -21 -21 -21 -21 -20 -21 -21 -21 -21 -21 -21 -21 -21 -21 -22 -21 -21 -21 -20 -21 -21 -21 -22 -22 -22 -22 -22
-24 -24 -24 -24 -24 -24 -24 -23 -23 -22 -22 -22 -22 -22 -22 -22 -22 -21 -21 -22 -22 -22 -22 -22 -22 -22 -21 -22 -22 -22 -21 -22 -22 -21 -21 -21 -21 -21 -21 -21 -22 -22 -22 -22 -22
-27 -26 -25 -24 -25 -24 -25 -24 -23 -22 -23 -23 -23 -23 -23 -23 -23 -22 -22 -22 -22 -22 -22 -22 -22 -22 -22 -22 -22 -22 -22 -22 -22 -21 -21 -21 -21 -22 -22 -22 -22 -22 -22 -23 -22
-28 -27 -27 -26 -26 -26 -26 -25 -25 -24 -25 -24 -24 -24 -24 -23 -23 -23 -23 -23 -23 -23 -23 -23 -23 -23 -22 -23 -23 -23 -22 -22 -22 -21 -21 -22 -22 -22 -22 -22 -22 -22 -23 -23 -22
-28 -28 -28 -27 -26 -26 -26 -25 -25 -25 -25 -25 -24 -24 -24 -23 -24 -24 -23 -23 -23 -23 -23 -23 -23 -23 -23 -23 -24 -23 -22 -22 -22 -22 -22 -22 -22 -22 -22 -22 -22 -22 -23 -23 -22

GFSSW_500_temp_123.txt.gz
Temp
-9 -9 -9 -8 -9 -8 -9 -9 -8 -9 -8 -8 -8 -8 -9 -9 -8 -9 -9 -9 -9 -9 -9 -9 -9 -10 -11 -10 -11 -10 -10 -10 -11 -11 -11 -11 -11 -10 -11 -11 -11 -11 -11 -10 -10
-9 -9 -9 -9 -9 -9 -9 -9 -9 -8 -9 -9 -9 -9 -9 -9 -9 -9 -9 -9 -9 -9 -9 -10 -10 -11 -11 -11 -11 -11 -11 -11 -11 -11 -11 -11 -11 -11 -11 -11 -10 -10 -10 -11 -10
-10 -9 -9 -9 -9 -9 -9 -9 -9 -9 -9 -9 -9 -9 -9 -9 -9 -9 -10 -10 -10 -10 -10 -10 -10 -11 -11 -11 -11 -11 -11 -11 -11 -11 -11 -11 -11 -11 -11 -11 -11 -11 -11 -10 -11
-10 -10 -10 -10 -10 -10 -10 -10 -9 -9 -9 -9 -9 -10 -10 -10 -10 -10 -10 -10 -10 -10 -10 -11 -11 -12 -12 -11 -12 -12 -12 -12 -12 -11 -11 -11 -11 -11 -11 -11 -11 -11 -11 -11 -11
-10 -10 -10 -10 -10 -10 -10 -10 -10 -10 -10 -10 -10 -10 -11 -11 -10 -11 -11 -10 -10 -11 -11 -11 -12 -12 -12 -12 -12 -12 -12 -12 -12 -12 -12 -11 -12 -11 -11 -11 -11 -11 -11 -11 -11
-11 -11 -11 -11 -10 -11 -11 -11 -11 -11 -10 -11 -10 -11 -11 -11 -11 -11 -11 -11 -11 -12 -11 -12 -12 -12 -12 -12 -12 -12 -13 -13 -13 -13 -12 -12 -12 -12 -11 -11 -11 -11 -11 -11 -11
-12 -12 -12 -12 -11 -11 -12 -11 -11 -11 -11 -11 -11 -11 -11 -12 -11 -12 -12 -12 -12 -12 -12 -12 -13 -13 -13 -13 -13 -13 -13 -13 -13 -13 -13 -12 -12 -12 -11 -11 -12 -12 -12 -11 -11
-13 -13 -13 -12 -12 -12 -12 -12 -12 -12 -11 -12 -12 -12 -12 -12 -12 -12 -12 -12 -13 -13 -13 -13 -13 -13 -13 -13 -13 -13 -13 -13 -13 -13 -13 -12 -12 -12 -12 -12 -12 -12 -12 -12 -11
-14 -14 -13 -13 -13 -13 -13 -13 -12 -12 -12 -12 -12 -12 -12 -12 -12 -13 -13 -13 -13 -13 -13 -13 -13 -13 -14 -13 -13 -13 -12 -12 -13 -13 -12 -12 -12 -13 -13 -12 -12 -12 -12 -12 -12
-13 -14 -14 -13 -13 -13 -13 -13 -13 -12 -13 -13 -12 -13 -13 -13 -13 -13 -14 -14 -14 -14 -13 -13 -12 -13 -14 -14 -13 -13 -12 -12 -13 -13 -12 -12 -12 -12 -12 -12 -13 -12 -12 -12 -13
-14 -14 -14 -14 -14 -14 -14 -14 -13 -13 -13 -13 -12 -13 -13 -13 -13 -13 -14 -15 -14 -14 -14 -13 -12 -14 -14 -13 -13 -13 -13 -12 -13 -13 -12 -13 -12 -13 -12 -13 -13 -13 -13 -13 -12
-15 -15 -15 -14 -14 -14 -14 -14 -14 -13 -13 -13 -12 -12 -13 -13 -13 -14 -14 -14 -15 -14 -14 -14 -14 -14 -14 -14 -13 -13 -13 -13 -13 -13 -12 -12 -13 -13 -13 -13 -13 -13 -13 -13 -13
-15 -15 -15 -15 -15 -15 -14 -15 -14 -14 -13 -13 -13 -13 -13 -13 -14 -15 -15 -14 -15 -15 -15 -14 -14 -14 -14 -14 -14 -14 -14 -13 -13 -13 -13 -13 -13 -12 -12 -13 -13 -13 -14 -13 -13
-15 -15 -15 -15 -15 -15 -15 -15 -15 -15 -14 -12 -13 -12 -13 -14 -14 -15 -15 -15 -15 -16 -15 -14 -15 -14 -14 -15 -15 -14 -15 -14 -14 -13 -13 -13 -13 -13 -12 -13 -13 -14 -13 -14 -14
-16 -15 -15 -15 -15 -15 -15 -15 -15 -15 -15 -13 -13 -13 -14 -15 -14 -15 -15 -15 -16 -16 -15 -16 -16 -15 -15 -16 -15 -15 -15 -15 -14 -14 -13 -13 -14 -12 -13 -13 -13 -14 -14 -15 -15
-16 -16 -16 -16 -16 -15 -15 -15 -16 -16 -14 -14 -13 -13 -14 -14 -15 -15 -16 -16 -16 -16 -16 -17 -16 -16 -16 -16 -16 -16 -16 -16 -15 -15 -14 -14 -15 -13 -14 -14 -15 -15 -15 -16 -16
-17 -17 -17 -17 -17 -16 -16 -17 -17 -15 -15 -14 -14 -14 -15 -15 -15 -16 -16 -16 -17 -17 -17 -17 -17 -17 -16 -16 -17 -17 -17 -16 -16 -16 -15 -15 -15 -14 -14 -15 -16 -16 -16 -17 -17
-19 -19 -18 -17 -17 -17 -18 -19 -18 -15 -15 -16 -15 -15 -16 -16 -16 -17 -17 -17 -17 -17 -17 -17 -17 -17 -17 -17 -17 -17 -18 -17 -17 -17 -16 -16 -15 -15 -15 -16 -17 -18 -18 -18 -18
-21 -20 -19 -19 -19 -19 -21 -21 -15 -15 -16 -17 -17 -17 -18 -17 -17 -17 -17 -17 -18 -18 -18 -18 -17 -17 -17 -18 -18 -17 -18 -19 -18 -18 -18 -17 -16 -16 -17 -18 -18 -18 -18 -19 -19
-22 -21 -20 -20 -21 -21 -22 -19 -16 -16 -17 -19 -19 -19 -18 -18 -18 -18 -18 -18 -18 -19 -19 -18 -18 -18 -18 -18 -18 -18 -19 -19 -19 -20 -19 -18 -17 -17 -18 -19 -19 -19 -20 -20 -20
-23 -22 -21 -21 -22 -23 -23 -18 -18 -18 -19 -20 -20 -20 -19 -19 -19 -19 -19 -19 -19 -19 -20 -19 -19 -19 -18 -18 -19 -19 -19 -19 -20 -21 -21 -20 -18 -18 -19 -20 -20 -21 -21 -21 -20
-25 -23 -23 -23 -24 -22 -21 -19 -19 -19 -20 -21 -20 -20 -20 -20 -20 -20 -20 -20 -20 -20 -20 -20 -20 -19 -19 -19 -19 -20 -20 -21 -21 -21 -21 -21 -18 -20 -20 -20 -21 -21 -21 -21 -21
-26 -24 -24 -25 -25 -24 -22 -21 -20 -20 -21 -21 -21 -21 -21 -21 -21 -21 -20 -20 -20 -21 -20 -21 -21 -21 -20 -20 -20 -21 -21 -21 -22 -21 -21 -22 -20 -20 -20 -21 -21 -22 -21 -21 -22
-27 -26 -25 -25 -26 -25 -24 -23 -23 -22 -22 -22 -21 -21 -21 -21 -21 -21 -21 -21 -22 -22 -21 -22 -22 -22 -21 -21 -21 -21 -21 -22 -22 -22 -22 -21 -21 -21 -21 -20 -21 -22 -22 -22 -22
-28 -27 -26 -26 -26 -25 -25 -24 -23 -23 -23 -24 -22 -22 -22 -22 -23 -22 -22 -22 -22 -22 -22 -22 -22 -22 -22 -22 -22 -22 -21 -22 -22 -22 -22 -21 -22 -21 -21 -21 -21 -22 -22 -22 -22
-28 -28 -27 -27 -27 -26 -26 -25 -24 -24 -24 -24 -24 -24 -24 -23 -23 -23 -24 -23 -23 -23 -23 -23 -23 -23 -23 -23 -23 -22 -22 -22 -22 -22 -23 -23 -22 -22 -22 -21 -23 -23 -22 -22 -22
-28 -28 -28 -27 -27 -27 -26 -26 -25 -26 -25 -25 -25 -24 -24 -24 -25 -24 -24 -24 -23 -23 -23 -23 -23 -23 -23 -23 -23 -23 -22 -22 -23 -23 -23 -22 -22 -22 -22 -23 -23 -23 -22 -22 -22

GFSSW_500_temp_126.txt.gz
Temp
-9 -9 -9 -9 -9 -9 -9 -8 -8 -8 -8 -8 -8 -8 -8 -8 -8 -8 -9 -8 -8 -8 -9 -9 -9 -9 -9 -9 -10 -10 -11 -11 -11 -10 -10 -11 -11 -11 -11 -11 -11 -11 -11 -11 -11
-9 -9 -9 -9 -9 -9 -9 -9 -9 -9 -9 -9 -9 -9 -9 -9 -9 -9 -9 -9 -9 -9 -9 -9 -9 -10 -10 -10 -10 -11 -11 -11 -11 -11 -11 -11 -11 -11 -11 -10 -11 -11 -10 -11 -11
-9 -9 -9 -9 -9 -9 -9 -9 -9 -9 -9 -9 -9 -9 -9 -9 -9 -9 -9 -9 -9 -9 -9 -10 -10 -10 -10 -10 -11 -11 -11 -11 -11 -11 -11 -11 -11 -11 -11 -11 -10 -11 -11 -10 -10
-10 -10 -10 -10 -10 -9 -9 -9 -9 -9 -9 -9 -9 -10 -10 -10 -10 -10 -9 -10 -10 -10 -10 -10 -10 -11 -11 -11 -11 -11 -12 -12 -11 -11 -12 -12 -11 -11 -11 -11 -11 -11 -11 -11 -11
-10 -10 -10 -10 -10 -10 -10 -10 -10 -9 -9 -10 -10 -10 -10 -10 -10 -10 -10 -10 -10 -10 -10 -10 -11 -11 -12 -11 -12 -12 -12 -12 -12 -12 -12 -12 -12 -11 -12 -12 -11 -11 -11 -11 -11
-11 -11 -11 -11 -11 -11 -10 -10 -10 -10 -9 -10 -10 -11 -10 -11 -10 -11 -11 -11 -11 -11 -11 -11 -11 -12 -12 -12 -12 -12 -12 -12 -12 -12 -12 -12 -12 -12 -12 -12 -12 -12 -11 -11 -11
-12 -12 -12 -12 -11 -11 -11 -11 -11 -11 -10 -11 -11 -11 -11 -12 -11 -11 -11 -11 -11 -11 -11 -11 -12 -12 -12 -12 -12 -13 -13 -13 -13 -13 -12 -12 -12 -12 -12 -12 -12 -12 -11 -11 -11
-13 -13 -13 -12 -12 -12 -12 -12 -12 -11 -11 -11 -11 -11 -11 -12 -11 -11 -12 -12 -12 -12 -12 -12 -12 -13 -13 -13 -12 -13 -13 -13 -13 -13 -12 -13 -12 -12 -12 -12 -12 -12 -12 -11 -11
-13 -13 -13 -13 -13 -13 -13 -12 -12 -12 -12 -12 -12 -11 -12 -12 -12 -12 -12 -12 -12 -12 -12 -13 -13 -13 -13 -13 -13 -13 -13 -13 -13 -13 -12 -12 -12 -12 -12 -12 -13 -12 -12 -12 -12
-14 -14 -14 -14 -14 -13 -13 -13 -13 -13 -13 -13 -12 -12 -12 -12 -12 -12 -12 -13 -13 -13 -13 -13 -13 -13 -13 -13 -13 -13 -13 -12 -13 -12 -12 -12 -11 -12 -11 -12 -12 -13 -13 -13 -13
-14 -14 -14 -14 -14 -14 -14 -14 -14 -13 -13 -13 -13 -13 -13 -13 -13 -12 -13 -13 -13 -13 -13 -13 -13 -14 -13 -13 -13 -13 -13 -13 -13 -13 -12 -12 -12 -11 -11 -12 -12 -13 -13 -13 -13
-15 -14 -14 -14 -14 -14 -14 -14 -14 -14 -14 -13 -13 -13 -13 -13 -12 -13 -13 -13 -14 -14 -13 -13 -13 -14 -13 -13 -13 -13 -13 -14 -13 -12 -12 -12 -12 -11 -12 -12 -13 -13 -13 -13 -13
-15 -15 -15 -14 -14 -15 -15 -14 -14 -15 -14 -14 -13 -13 -13 -13 -13 -13 -13 -14 -14 -14 -14 -14 -13 -14 -14 -14 -14 -13 -13 -14 -13 -12 -13 -12 -12 -11 -12 -13 -14 -14 -14 -13 -13
-15 -15 -15 -15 -15 -15 -15 -15 -14 -15 -15 -13 -14 -13 -13 -14 -13 -14 -14 -14 -14 -15 -14 -14 -14 -14 -14 -14 -14 -14 -14 -14 -13 -13 -13 -12 -12 -12 -11 -13 -13 -14 -13 -13 -13
-16 -15 -15 -16 -16 -15 -15 -15 -15 -15 -15 -14 -13 -13 -13 -14 -13 -14 -14 -15 -15 -15 -15 -14 -15 -15 -15 -15 -14 -14 -14 -14 -14 -14 -13 -13 -13 -13 -13 -13 -13 -14 -14 -14 -14
-17 -16 -15 -16 -17 -16 -16 -16 -15 -16 -14 -14 -13 -13 -13 -14 -14 -14 -15 -15 -15 -15 -15 -15 -15 -16 -16 -16 -15 -15 -15 -15 -15 -15 -14 -14 -14 -14 -13 -14 -14 -14 -14 -14 -15
-18 -17 -17 -18 -18 -17 -17 -16 -16 -15 -15 -14 -14 -14 -14 -14 -14 -14 -15 -15 -15 -15 -15 -16 -16 -17 -16 -16 -16 -16 -16 -16 -16 -15 -15 -15 -15 -14 -14 -15 -15 -16 -16 -16 -16
-19 -19 -19 -19 -19 -18 -18 -17 -16 -14 -15 -15 -14 -15 -15 -15 -15 -15 -15 -16 -16 -16 -17 -17 -17 -17 -17 -17 -16 -16 -17 -17 -17 -17 -16 -15 -14 -14 -15 -16 -16 -16 -16 -17 -17
-21 -20 -19 -20 -20 -19 -19 -18 -17 -16 -15 -15 -15 -15 -16 -16 -16 -16 -16 -17 -17 -18 -18 -18 -18 -18 -17 -17 -17 -16 -17 -18 -18 -18 -17 -16 -15 -14 -15 -16 -17 -18 -18 -18 -18
-25 -23 -22 -22 -21 -21 -20 -19 -18 -17 -16 -16 -17 -18 -18 -19 -18 -18 -18 -18 -18 -18 -19 -18 -18 -18 -17 -18 -18 -18 -17 -18 -19 -18 -18 -16 -16 -16 -15 -17 -18 -19 -19 -19 -19
-25 -24 -25 -23 -23 -22 -21 -19 -18 -18 -18 -17 -18 -19 -20 -20 -20 -19 -20 -19 -19 -20 -20 -19 -19 -19 -18 -17 -18 -18 -18 -18 -20 -19 -19 -18 -17 -16 -16 -18 -19 -20 -20 -20 -20
-24 -25 -25 -25 -24 -22 -21 -19 -19 -18 -19 -19 -19 -20 -20 -20 -21 -21 -21 -21 -20 -20 -20 -20 -20 -20 -19 -19 -19 -19 -19 -19 -20 -20 -20 -20 -17 -18 -19 -19 -20 -20 -20 -21 -21
-25 -25 -25 -25 -25 -24 -22 -22 -21 -21 -21 -21 -21 -21 -21 -21 -20 -20 -20 -21 -21 -21 -20 -20 -20 -21 -20 -20 -19 -19 -20 -20 -21 -21 -19 -21 -20 -19 -20 -20 -21 -21 -21 -21 -21
-26 -26 -26 -26 -26 -25 -23 -22 -22 -21 -22 -21 -21 -21 -22 -21 -21 -21 -21 -21 -21 -21 -21 -21 -21 -21 -21 -22 -21 -21 -21 -21 -21 -20 -21 -20 -21 -21 -21 -21 -21 -21 -21 -21 -21
-26 -26 -26 -26 -26 -25 -24 -23 -23 -23 -22 -23 -22 -22 -22 -22 -22 -21 -22 -22 -22 -22 -22 -22 -21 -22 -21 -21 -22 -22 -22 -21 -21 -21 -21 -20 -22 -21 -22 -21 -22 -21 -21 -21 -22
-26 -26 -27 -26 -27 -27 -26 -25 -24 -24 -23 -24 -23 -24 -23 -23 -22 -23 -23 -23 -23 -22 -22 -22 -21 -22 -21 -22 -23 -22 -22 -21 -21 -21 -22 -22 -21 -22 -22 -22 -22 -22 -22 -22 -22
-27 -27 -28 -27 -27 -27 -27 -26 -25 -26 -25 -25 -24 -24 -24 -24 -24 -24 -24 -24 -23 -23 -23 -23 -23 -24 -23 -23 -23 -23 -21 -22 -22 -22 -22 -22 -22 -22 -22 -23 -22 -22 -22 -22 -23

GFSSW_500_temp_129.txt.gz
Temp
-8 -8 -8 -8 -8 -8 -8 -8 -8 -8 -8 -8 -8 -8 -8 -8 -8 -8 -8 -8 -8 -8 -8 -8 -9 -9 -9 -9 -9 -9 -9 -11 -11 -11 -10 -11 -10 -10 -10 -10 -11 -11 -11 -11 -11
-9 -8 -9 -8 -9 -8 -8 -8 -8 -8 -9 -9 -9 -8 -8 -9 -8 -8 -8 -8 -8 -8 -8 -9 -9 -9 -10 -10 -10 -10 -10 -11 -10 -10 -11 -11 -11 -11 -11 -10 -11 -10 -11 -11 -11
-9 -9 -9 -9 -8 -9 -9 -9 -8 -9 -9 -9 -9 -9 -9 -9 -9 -9 -9 -9 -9 -9 -9 -9 -9 -10 -10 -10 -10 -10 -10 -10 -11 -11 -11 -11 -11 -11 -11 -11 -11 -11 -11 -11 -11
-10 -9 -9 -9 -9 -9 -9 -9 -9 -9 -9 -9 -9 -9 -9 -9 -9 -9 -9 -9 -9 -9 -9 -9 -10 -10 -10 -11 -11 -11 -11 -10 -11 -11 -11 -11 -11 -12 -12 -12 -11 -11 -11 -11 -11
-10 -10 -10 -10 -10 -10 -10 -9 -9 -9 -9 -9 -10 -10 -10 -10 -9 -10 -10 -9 -9 -9 -10 -10 -10 -10 -11 -11 -11 -11 -11 -11 -11 -12 -12 -12 -12 -12 -12 -11 -11 -11 -11 -11 -11
-11 -11 -10 -10 -10 -10 -10 -10 -10 -10 -10 -10 -10 -10 -10 -10 -10 -10 -10 -10 -10 -10 -10 -10 -11 -10 -11 -11 -11 -11 -12 -11 -12 -12 -12 -12 -12 -12 -11 -11 -11 -12 -11 -11 -11
-12 -12 -11 -11 -11 -11 -10 -10 -10 -10 -10 -11 -11 -10 -10 -11 -10 -10 -11 -11 -10 -11 -11 -11 -11 -11 -11 -11 -12 -12 -12 -12 -12 -12 -12 -12 -12 -12 -11 -12 -12 -11 -11 -10 -11
-13 -13 -13 -12 -12 -12 -12 -12 -11 -11 -11 -11 -11 -11 -11 -11 -11 -11 -11 -11 -11 -11 -11 -11 -11 -11 -11 -11 -12 -12 -12 -12 -12 -12 -12 -13 -13 -12 -11 -12 -12 -11 -11 -10 -11
-13 -13 -13 -13 -13 -13 -12 -12 -12 -12 -11 -12 -12 -12 -11 -12 -12 -12 -12 -11 -11 -11 -11 -12 -12 -12 -12 -12 -12 -13 -13 -13 -12 -12 -12 -12 -13 -13 -12 -12 -12 -12 -11 -11 -11
-13 -13 -14 -14 -13 -13 -13 -13 -13 -13 -13 -13 -13 -13 -12 -12 -12 -12 -12 -12 -11 -11 -12 -12 -13 -13 -12 -12 -13 -14 -12 -12 -13 -11 -11 -12 -13 -13 -12 -12 -12 -12 -12 -11 -11
-14 -13 -13 -14 -14 -14 -14 -14 -14 -14 -13 -14 -13 -13 -12 -13 -12 -12 -13 -12 -12 -12 -12 -13 -13 -13 -13 -13 -13 -13 -13 -13 -13 -12 -11 -11 -12 -12 -12 -11 -12 -13 -12 -12 -11
-14 -14 -14 -13 -14 -14 -14 -14 -14 -14 -13 -14 -13 -13 -13 -13 -13 -13 -13 -13 -13 -13 -13 -13 -13 -14 -14 -13 -13 -13 -13 -13 -13 -13 -11 -12 -12 -12 -11 -12 -13 -13 -13 -13 -12
-14 -14 -14 -14 -15 -14 -14 -14 -14 -14 -13 -13 -13 -13 -13 -13 -13 -13 -13 -13 -13 -13 -13 -13 -13 -13 -13 -14 -14 -13 -13 -13 -13 -13 -11 -12 -11 -12 -11 -12 -13 -13 -13 -13 -13
-15 -15 -15 -15 -14 -15 -15 -15 -15 -14 -14 -13 -13 -13 -13 -13 -13 -14 -14 -14 -13 -13 -14 -13 -14 -12 -14 -14 -14 -14 -14 -13 -13 -13 -13 -12 -12 -12 -12 -10 -13 -13 -13 -13 -14
-15 -15 -15 -15 -15 -15 -15 -15 -15 -15 -15 -14 -12 -13 -13 -14 -14 -14 -14 -14 -14 -14 -14 -13 -14 -13 -14 -14 -14 -15 -13 -14 -14 -14 -13 -13 -13 -12 -13 -11 -12 -13 -13 -13 -14
-18 -16 -15 -15 -15 -15 -15 -15 -16 -17 -15 -15 -13 -14 -14 -14 -14 -13 -14 -15 -14 -14 -14 -14 -13 -14 -14 -15 -15 -15 -15 -14 -15 -15 -13 -14 -14 -12 -14 -12 -13 -14 -14 -14 -14
-18 -18 -18 -17 -17 -16 -16 -17 -17 -16 -15 -16 -14 -14 -14 -14 -14 -14 -14 -15 -14 -14 -14 -15 -15 -15 -15 -15 -15 -15 -15 -15 -15 -14 -14 -15 -14 -13 -14 -13 -14 -14 -15 -15 -15
-19 -18 -18 -18 -19 -19 -19 -19 -18 -14 -16 -17 -16 -16 -15 -15 -15 -15 -14 -15 -15 -15 -16 -15 -16 -15 -15 -16 -16 -16 -16 -16 -16 -16 -16 -16 -13 -14 -14 -14 -15 -15 -15 -16 -16
-20 -19 -20 -20 -20 -19 -20 -21 -18 -15 -17 -19 -18 -17 -17 -16 -15 -15 -15 -15 -16 -16 -17 -17 -17 -17 -16 -17 -16 -16 -16 -17 -17 -16 -16 -15 -15 -14 -14 -14 -14 -15 -16 -16 -16
-25 -24 -23 -23 -23 -23 -23 -22 -19 -18 -19 -19 -19 -17 -17 -17 -17 -16 -16 -16 -17 -18 -18 -18 -18 -18 -17 -17 -17 -17 -17 -17 -17 -17 -17 -15 -16 -17 -15 -15 -15 -16 -17 -17 -17
-24 -24 -25 -24 -24 -25 -24 -22 -19 -19 -20 -19 -19 -18 -18 -17 -17 -16 -18 -19 -19 -20 -19 -19 -19 -19 -17 -17 -18 -18 -18 -18 -18 -17 -17 -17 -16 -17 -17 -16 -16 -17 -17 -18 -18
-24 -24 -24 -24 -25 -24 -24 -23 -22 -22 -21 -20 -19 -19 -18 -18 -17 -19 -20 -21 -20 -20 -20 -20 -20 -20 -18 -19 -19 -19 -18 -18 -19 -17 -18 -18 -16 -19 -18 -17 -17 -18 -18 -20 -20
-25 -25 -25 -24 -24 -24 -24 -24 -24 -22 -22 -21 -20 -20 -19 -19 -19 -20 -21 -21 -19 -21 -21 -22 -20 -21 -21 -20 -20 -18 -19 -19 -20 -19 -18 -19 -17 -18 -19 -19 -19 -19 -19 -20 -20
-26 -26 -25 -24 -25 -25 -25 -24 -24 -23 -24 -23 -21 -22 -21 -20 -20 -21 -22 -22 -21 -22 -22 -22 -20 -21 -20 -20 -20 -20 -20 -20 -20 -20 -19 -19 -19 -20 -19 -20 -21 -19 -20 -21 -21
-26 -26 -25 -25 -25 -25 -25 -25 -24 -25 -24 -23 -22 -23 -22 -22 -22 -23 -22 -22 -21 -21 -21 -21 -21 -21 -21 -21 -20 -20 -20 -20 -20 -20 -20 -19 -20 -19 -21 -21 -21 -21 -20 -21 -21
-27 -26 -27 -25 -25 -26 -26 -26 -25 -25 -24 -23 -23 -23 -24 -24 -23 -23 -23 -23 -23 -23 -21 -22 -22 -22 -21 -21 -21 -21 -20 -20 -21 -21 -21 -21 -21 -20 -21 -21 -22 -21 -21 -21 -22
-27 -27 -27 -26 -26 -26 -26 -25 -25 -25 -25 -24 -24 -24 -25 -24 -24 -25 -25 -24 -24 -23 -23 -23 -22 -23 -22 -22 -22 -22 -18 -21 -21 -21 -22 -22 -22 -21 -23 -22 -22 -23 -22 -22 -22